Regional Weather Roundup
Issued by NWS Cleveland, OH

Home | Current Version | Previous Version | Graphics & Text | Print | Product List | Glossary On
Versions: 1 2 3 4 5 6 7 8 9 10 11 12 13 14 15 16 17 18 19 20 21 22 23 24 25 26 27 28 29 30 31 32 33 34 35 36 37 38 39 40 41 42 43 44 45 46 47 48 49 50
000
ASUS41 KCLE 050400
RWRCLE
OHIO REGIONAL WEATHER ROUNDUP
NATIONAL WEATHER SERVICE WILMINGTON, OH
1200 AM EDT THU MAY 05 2016

NOTE: "FAIR" INDICATES FEW OR NO CLOUDS BELOW 12,000 FEET WITH NO
SIGNIFICANT WEATHER AND/OR OBSTRUCTIONS TO VISIBILITY.

OHZ001>008-015>018-024>027-034-035-043-044-050500-
   NORTHWEST OHIO

CITY           SKY/WX    TMP DP  RH WIND       PRES   REMARKS
DEFIANCE       CLOUDY    42  36  79 NW6       29.73S
FINDLAY        CLOUDY    44  37  76 W7        29.72S
TOLEDO EXPRESS CLOUDY    44  39  82 NW7       29.72R
TOLEDO EXEC    CLOUDY    46  41  82 NW6       29.73R
LIMA           CLOUDY    41  38  89 NW5       29.72S
$$

OHZ009>014-019>023-028>033-038-089-050500-
   NORTHEAST OHIO

CITY           SKY/WX    TMP DP  RH WIND       PRES   REMARKS
CLE-HOPKINS    LGT RAIN  50  47  89 NW6       29.72S
CLE-LAKEFRONT  CLOUDY    50  48  93 W8        29.69S
CUY CO. ARPT   NOT AVBL
LORAIN-ELYRIA  LGT RAIN  47  43  86 W8        29.71S
ASHTABULA      FAIR      50  43  77 W3        29.68F
AKRON-CANTON   LGT RAIN  49  47  93 W5        29.68F FOG
WOOSTER        NOT AVBL
MANSFIELD      CLOUDY    45  43  93 VRB3      29.70S
YOUNGSTOWN     CLOUDY    49  44  83 CALM      29.68S
$$

OHZ042-051>053-060>062-070>072-077>081-050500-
  SOUTHWEST OHIO

CITY           SKY/WX    TMP DP  RH WIND       PRES   REMARKS
CINC-COVINGTON MOCLDY    45  35  68 NW7       29.76F
CINC-LUNKEN    MOCLDY    46  36  68 VRB6      29.77F
HAMILTON       CLOUDY    47  36  65 W7        29.77S
DAYTON         NOT AVBL
WRIGHT-PAT AFB CLOUDY    44  35  73 W7        29.73S
DAYTON GENERAL CLOUDY    46  34  62 W8        29.73F
WILMINGTON     CLOUDY    46  36  68 NW9       29.72F
$$

OHZ036-037-039>041-045>050-054>059-063>069-073>076-082>088-050500-
  CENTRAL AND SOUTHEAST OHIO

CITY           SKY/WX    TMP DP  RH WIND       PRES   REMARKS
COLUMBUS       CLOUDY    45  36  70 NW12      29.72S
OSU AIRPORT    CLOUDY    45  35  68 NW10      29.71F
BOLTON FIELD   NOT AVBL
RICKENBACK AFB NOT AVBL
NEWARK         MOCLDY    47  40  76 NW6       29.71S
MARION         CLOUDY    45  40  82 NW6       29.72S
LANCASTER      FAIR      45  40  82 NW7       29.72S
ZANESVILLE     LGT RAIN  50  46  86 NW5       29.70S
NEW PHILLY     LGT RAIN  51  48  89 CALM      29.69S
$$




USA.gov is the U.S. government's official web portal to all federal, state and local government web resources and services.